Nausori, Fiji

9:48 AM +12 on March 31, 2017 (GMT +1200)
Nausori International

Weather History for NFNA - May, 2014

Change the Weather History Date:

Thursday, May 15, 2014

  Actual Average Record
Temperature  
Mean Temperature 77 °F -  
Max Temperature 84 °F 82 °F - ()
Min Temperature 70 °F 71 °F - ()
Cooling Degree Days 12    
Growing Degree Days 27 (Base 50)    
Moisture  
Dew Point 74 °F    
Average Humidity 89    
Maximum Humidity 100    
Minimum Humidity 65    
Precipitation  
Precipitation 0.03 in 0.28 in - ()
Sea Level Pressure  
Sea Level Pressure 29.88 in    
Wind  
Wind Speed 3 mph ()    
Max Wind Speed 12 mph    
Max Gust Speed -    
Visibility 9.6 miles    
Events Rain    
T = Trace of Precipitation, MM = Missing Value Source: Averaged Metar Reports

Daily Weather History Graph

Daily Weather History Graph

Search for Another Location

Airport or City:

Trip Planner

Search our weather history database for the weather conditions in past years. The results will help you decide how hot, cold, wet, or windy it might be!

Date:

Astronomy

May. 15, 2014 Rise Set
Actual Time 6:23 AM +12 5:40 PM +12
Civil Twilight 6:00 AM +12 6:03 PM +12
Nautical Twilight 5:34 AM +12 6:29 PM +12
Astronomical Twilight 5:08 AM +12 6:55 PM +12
Moon 6:05 PM +12 (5/15) 6:24 AM +12 (5/15)
Length of Visible Light 12h 02m
Length of Day
11h 16m
Full, 100% of the Moon is Illuminated
May 15
Full
May 22
Last Quarter
May 29
New
Jun 6
First Quarter
Jun 13
Full

Hourly Weather History & Observations

Time (+12) Temp. Heat Index Dew Point Humidity Pressure Visibility Wind Dir Wind Speed Gust Speed Precip Events Conditions
12:00 AM 76 °F - 74 °F 91% 29.94 in 12 mi SE 4.6 mph - -   Partly Cloudy
12:00 AM 77.0 °F - 73.4 °F 89% 29.92 in 6.2 mi SE 4.6 mph - N/A   Mostly Cloudy
1:00 AM 77.0 °F - 73.4 °F 89% 29.92 in 6.2 mi Calm Calm - N/A   Mostly Cloudy
2:00 AM 71.6 °F - 71.6 °F 100% 29.89 in 6.2 mi Calm Calm - N/A   Partly Cloudy
3:00 AM 72 °F - 72 °F 99% 29.88 in 12 mi Calm Calm - -   Partly Cloudy
3:00 AM 71.6 °F - 71.6 °F 100% 29.86 in 6.2 mi Calm Calm - N/A   Partly Cloudy
4:00 AM 71.6 °F - 71.6 °F 100% 29.86 in 6.2 mi Calm Calm - N/A   Partly Cloudy
5:00 AM 69.8 °F - 69.8 °F 100% 29.89 in 6.2 mi Calm Calm - N/A   Partly Cloudy
6:00 AM 71 °F - 71 °F 98% 29.88 in 12 mi Calm Calm - -   Partly Cloudy
6:00 AM 71.6 °F - 69.8 °F 94% 29.86 in 6.2 mi Calm Calm - N/A   Scattered Clouds
7:00 AM 71.6 °F - 71.6 °F 100% 29.89 in 24.9 mi Calm Calm - N/A   Scattered Clouds
8:00 AM 75.2 °F - 75.2 °F 100% 29.92 in 24.9 mi Calm Calm - N/A   Scattered Clouds
9:00 AM 80 °F - 75 °F 79% 29.93 in 31 mi East 9.2 mph - -   Partly Cloudy
9:00 AM 80.6 °F 86.2 °F 75.2 °F 84% 29.92 in 31.1 mi East 9.2 mph - N/A   Mostly Cloudy
10:00 AM 80.6 °F 86.2 °F 75.2 °F 84% 29.92 in 31.1 mi East 9.2 mph - N/A   Mostly Cloudy
11:00 AM 82.4 °F 89.5 °F 75.2 °F 79% 29.89 in 31.1 mi East 9.2 mph - N/A   Mostly Cloudy
12:00 PM 83 °F - 73 °F 65% 29.90 in 31 mi SE 6.9 mph - -   Partly Cloudy
12:00 PM 82.4 °F 88.2 °F 73.4 °F 74% 29.89 in 31.1 mi SE 6.9 mph - N/A   Mostly Cloudy
1:00 PM 84.2 °F 90.9 °F 73.4 °F 70% 29.86 in 31.1 mi ESE 11.5 mph - N/A   Mostly Cloudy
2:00 PM 84.2 °F 90.9 °F 73.4 °F 70% 29.83 in 31.1 mi ESE 10.4 mph - N/A   Mostly Cloudy
3:00 PM 83 °F - 74 °F 69% 29.84 in 31 mi ESE 9.2 mph - -   Partly Cloudy
3:00 PM 82.4 °F 89.5 °F 75.2 °F 79% 29.83 in 31.1 mi ESE 9.2 mph - N/A   Mostly Cloudy
4:00 PM 80.6 °F 86.2 °F 75.2 °F 84% 29.83 in 24.9 mi ESE 6.9 mph - N/A   Mostly Cloudy
5:00 PM 77.0 °F - 75.2 °F 94% 29.86 in 18.6 mi ESE 6.9 mph - N/A   Mostly Cloudy
6:00 PM 76 °F - 74 °F 91% 29.87 in 12 mi SSE 3.5 mph - - Rain Light Rain Showers
6:00 PM 75.2 °F - 73.4 °F 94% 29.86 in 18.6 mi SSE 3.5 mph - N/A Rain Light Rain Showers
7:00 PM 77.0 °F - 75.2 °F 94% 29.86 in 24.9 mi WSW 4.6 mph - N/A   Mostly Cloudy
8:00 PM 75.2 °F - 75.2 °F 100% 29.89 in 24.9 mi Calm Calm - N/A   Scattered Clouds
9:00 PM 75 °F - 75 °F 99% 29.91 in 12 mi Calm Calm - -   Partly Cloudy
9:00 PM 75.2 °F - 75.2 °F 100% 29.89 in 24.9 mi Calm Calm - N/A   Mostly Cloudy
10:00 PM 75.2 °F - 75.2 °F 100% 29.89 in 6.2 mi Calm Calm - N/A   Scattered Clouds
11:00 PM 77.0 °F - 75.2 °F 94% 29.89 in 6.2 mi ESE 4.6 mph - N/A   Mostly Cloudy